| time (UTC) | temp F | wind direction | speed MPH | gust MPH | rain 1hr in | rain 24hr in | rain mn in | humidity % | barometer mb |
| 20260504044550 | 53 | 238 | 0.0 | 2.0 | 0.00 | 0.00 | 0.00 | 48 | 1000.1 |
| 20260504043058 | 53 | 235 | 0.0 | 1.0 | 0.00 | 0.00 | 0.00 | 48 | 1000.4 |
| 20260504041545 | 53 | 236 | 0.0 | 0.0 | 0.00 | 0.00 | 0.00 | 48 | 1001.2 |
| 20260504040046 | 52 | 249 | 0.0 | 1.0 | 0.00 | 0.00 | 0.00 | 49 | 1001.6 |
| 20260504034547 | 52 | 252 | 0.0 | 0.0 | 0.00 | 0.00 | 0.00 | 50 | 1001.9 |
| 20260504033041 | 52 | 252 | 0.0 | 0.0 | 0.00 | 0.00 | 0.00 | 50 | 1002.2 |
| 20260504031537 | 52 | 252 | 0.0 | 0.0 | 0.00 | 0.00 | 0.00 | 48 | 1002.4 |
| 20260504030039 | 54 | 252 | 0.0 | 0.0 | 0.00 | 0.00 | 0.00 | 45 | 1002.7 |
| 20260504024535 | 56 | 252 | 0.0 | 0.0 | 0.00 | 0.00 | 0.00 | 41 | 1002.7 |
| 20260504023034 | 59 | 252 | 0.0 | 0.0 | 0.00 | 0.00 | 0.00 | 37 | 1002.9 |
| 20260504021536 | 60 | 252 | 0.0 | 1.0 | 0.00 | 0.00 | 0.00 | 36 | 1003.0 |
| 20260504020040 | 61 | 241 | 0.0 | 1.0 | 0.00 | 0.00 | 0.00 | 34 | 1002.9 |
| 20260504014537 | 62 | 231 | 0.0 | 1.0 | 0.00 | 0.00 | 0.00 | 33 | 1002.9 |
| 20260504013031 | 63 | 245 | 0.0 | 1.0 | 0.00 | 0.00 | 0.00 | 31 | 1002.5 |
| 20260504011533 | 64 | 238 | 0.0 | 2.0 | 0.00 | 0.00 | 0.00 | 29 | 1002.6 |
| 20260504010029 | 66 | 251 | 0.0 | 2.0 | 0.00 | 0.00 | 0.00 | 26 | 1002.6 |
| 20260504004528 | 67 | 255 | 0.0 | 3.0 | 0.00 | 0.00 | 0.00 | 24 | 1002.7 |
| 20260504003026 | 68 | 306 | 1.0 | 6.0 | 0.00 | 0.00 | 0.00 | 23 | 1002.9 |
| 20260504001524 | 68 | 304 | 0.0 | 8.0 | 0.00 | 0.00 | 0.00 | 24 | 1003.0 |
| 20260504000024 | 68 | 258 | 2.0 | 7.0 | 0.00 | 0.00 | 0.00 | 25 | 1003.2 |
| 20260503234523 | 69 | 339 | 2.0 | 7.0 | 0.00 | 0.00 | 0.00 | 25 | 1003.0 |
| 20260503233021 | 70 | 246 | 2.0 | 9.0 | 0.00 | 0.00 | 0.00 | 25 | 1003.2 |
| 20260503231522 | 70 | 280 | 2.0 | 8.0 | 0.00 | 0.00 | 0.00 | 23 | 1003.2 |
| 20260503230021 | 71 | 287 | 4.0 | 8.0 | 0.00 | 0.00 | 0.00 | 23 | 1003.3 |
| 20260503224518 | 71 | 252 | 2.0 | 11.0 | 0.00 | 0.00 | 0.00 | 23 | 1003.4 |
| 20260503223017 | 71 | 346 | 2.0 | 9.0 | 0.00 | 0.00 | 0.00 | 23 | 1003.5 |
| 20260503221516 | 71 | 349 | 2.0 | 14.0 | 0.00 | 0.00 | 0.00 | 22 | 1003.7 |
| 20260503220016 | 70 | 6 | 2.0 | 7.0 | 0.00 | 0.00 | 0.00 | 22 | 1003.7 |
| 20260503214533 | 70 | 270 | 1.0 | 14.0 | 0.00 | 0.00 | 0.00 | 24 | 1003.9 |
| 20260503213013 | 70 | 342 | 1.0 | 12.0 | 0.00 | 0.00 | 0.00 | 23 | 1004.0 |
| 20260503211512 | 70 | 311 | 4.0 | 9.0 | 0.00 | 0.00 | 0.00 | 22 | 1004.2 |
| 20260503210010 | 70 | 339 | 1.0 | 7.0 | 0.00 | 0.00 | 0.00 | 24 | 1004.2 |
| 20260503204507 | 68 | 10 | 4.0 | 11.0 | 0.00 | 0.00 | 0.00 | 24 | 1004.6 |
| 20260503203005 | 68 | 8 | 4.0 | 10.0 | 0.00 | 0.00 | 0.00 | 24 | 1004.8 |
| 20260503201506 | 68 | 257 | 3.0 | 14.0 | 0.00 | 0.00 | 0.00 | 24 | 1004.8 |
| 20260503200004 | 68 | 353 | 6.0 | 15.0 | 0.00 | 0.00 | 0.00 | 23 | 1005.0 |
| 20260503194502 | 68 | 316 | 2.0 | 14.0 | 0.00 | 0.00 | 0.00 | 24 | 1005.1 |
| 20260503193002 | 68 | 336 | 5.0 | 13.0 | 0.00 | 0.00 | 0.00 | 23 | 1005.2 |
| 20260503191607 | 67 | 262 | 5.0 | 18.0 | 0.00 | 0.00 | 0.00 | 23 | 1005.4 |
| 20260503184616 | 67 | 311 | 6.0 | 15.0 | 0.00 | 0.00 | 0.00 | 27 | 1005.6 |
| 20260503183100 | 67 | 322 | 5.0 | 12.0 | 0.00 | 0.00 | 0.00 | 29 | 1005.5 |
| 20260503181612 | 67 | 297 | 5.0 | 14.0 | 0.00 | 0.00 | 0.00 | 29 | 1005.7 |
| 20260503180112 | 66 | 348 | 6.0 | 13.0 | 0.00 | 0.00 | 0.00 | 30 | 1005.9 |
| 20260503174557 | 66 | 17 | 7.0 | 13.0 | 0.00 | 0.00 | 0.00 | 31 | 1005.9 |
| 20260503173101 | 66 | 278 | 4.0 | 11.0 | 0.00 | 0.00 | 0.00 | 34 | 1005.9 |
| 20260503171552 | 66 | 331 | 3.0 | 13.0 | 0.00 | 0.00 | 0.00 | 36 | 1006.0 |
| 20260503081531 | 54 | 258 | 0.0 | 1.0 | 0.00 | 0.00 | 0.00 | 56 | 1004.8 |
| 20260503071500 | 56 | 245 | 0.0 | 5.0 | 0.00 | 0.00 | 0.00 | 53 | 1005.4 |
| 20260503070105 | 56 | 252 | 0.0 | 4.0 | 0.00 | 0.00 | 0.00 | 54 | 1005.5 |